User: anonymous   Login
Location: Mohawk View
(42.7837°N, 73.7885°W)
Time: 17:01:02
(UTC+00:00)
Language:

SL-4 R/B - Orbit

View from above orbital plane
View from above orbital plane
View from above satellite
View from above satellite

Ground track
Ground track

The orbit data is extracted from the following two-line orbital elements,

1 39679U 14021B   21270.24503180  .00001898  00000-0  10733-3 0  9990
2 39679  51.6146 100.0417 0170044 124.1462 237.5766 15.07177592409720
Epoch (UTC): 27 September 2021 05:52:50
Eccentricity: 0.0170044
inclination: 51.6146°
perigee height: 427 km
apogee height: 662 km
right ascension of ascending node: 100.0417°
argument of perigee: 124.1462°
revolutions per day: 15.07177592
mean anomaly at epoch: 237.5766°
orbit number at epoch: 40972

The dashed part of the orbit path shows where the satellite is in the earth's shadow,  

DLR